Location: STAR School
(35.3054°N, 111.2976°W)
Time: 03:42:26
(UTC-07:00)

ISS - Visible Passes

Search period start: 18 November 2019 00:00
Search period end: 28 November 2019 00:00
Orbit: 412 x 421 km, 51.6° (Epoch: 18 November)

Date Brightness Start Highest point End Pass type
(mag) Time Alt. Az. Time Alt. Az. Time Alt. Az.
18 Nov -0.4 19:45:36 10° SW 19:45:44 11° SW 19:45:44 11° SW visible
19 Nov -3.0 18:57:19 10° SSW 18:59:50 42° S 18:59:50 42° S visible
20 Nov -2.6 18:09:23 10° SSW 18:12:15 27° SE 18:13:49 19° E visible
20 Nov -0.5 19:46:07 10° W 19:46:45 14° W 19:46:45 14° W visible
21 Nov -2.9 18:57:16 10° WSW 19:00:28 43° NW 19:00:39 42° NNW visible
22 Nov -3.8 18:08:41 10° SW 18:12:00 82° NW 18:14:27 17° NE visible
23 Nov -1.5 18:58:10 10° WNW 19:00:32 18° NNW 19:01:05 17° NNW visible
24 Nov -2.1 18:09:02 10° W 18:11:57 27° NW 18:14:42 11° NNE visible
26 Nov -1.2 18:10:27 10° NW 18:12:04 13° NNW 18:13:44 10° N visible
